AirNav   Everest Fuels
 
 1188 users online  

5CN4 Vosburgh Airfield
Cuyama, California, USA

GOING TO CUYAMA?


FAA INFORMATION EFFECTIVE 13 AUGUST 2020

Location

FAA Identifier: 5CN4
Lat/Long: 34-55-25.0800N 119-34-17.4000W
34-55.418000N 119-34.290000W
34.9236333,-119.5715000
(estimated)
Elevation: 2200 ft. / 671 m (estimated)
From city: 3 miles E of CUYAMA, CA
Time zone: UTC -7 (UTC -8 during Standard Time)
Zip code: 93254

Airport Operations

Airport use: Private use. Permission required prior to landing
Activation date: 02/2011
Control tower: no
ARTCC: LOS ANGELES CENTER
FSS: RANCHO MURIETA FLIGHT SERVICE STATION
Attendance: CONTINUOUS
Wind indicator: yes
Segmented circle: no

Nearby radio navigation aids

VOR radial/distance  VOR name  Freq  Var
FLWr109/17.7FELLOWS VOR/DME117.5016E
RZSr008/26.7SAN MARCUS VORTAC114.9014E
GVOr031/34.8GAVIOTA VORTAC113.8016E
GMNr266/35.7GORMAN VORTAC116.1016E

Airport Services

Runway Information

Runway 16/34

Dimensions: 2600 x 60 ft. / 792 x 18 m
Surface: dirt, in good condition
RUNWAY 16  RUNWAY 34
Traffic pattern: leftleft
Obstructions: 30 ft. plines, 50 ft. from runwaynone

Airport Ownership and Management from official FAA records

Ownership: Privately-owned
Owner: JASON DOUGLAS VOSBURGH
162 MANLEY CHAPEL RD
FAIRMONT, WV 26554-5359
Phone 805-766-3880
Manager: JASON VOSBURGH
1654 HWY 166
CUYAMA, CA 93254
Phone 805-766-3880

Airport Operational Statistics

Aircraft based on the field: 1
Single engine airplanes: 1
    

Additional Remarks

FOR CD CTC LOS ANGELES ARTCC AT 661-575-2079.

Instrument Procedures

There are no published instrument procedures at 5CN4.

Some nearby airports with instrument procedures:

KIZA - Santa Ynez Airport (31 nm SW)
KSBA - Santa Barbara Municipal Airport (33 nm SW)
L45 - Bakersfield Municipal Airport (37 nm NE)
KBFL - Meadows Field Airport (40 nm NE)
KMIT - Shafter Airport-Minter Field (40 nm NE)
 
Loc | Ops | Rwys | IFR | FBO | Links
Com | Nav | Svcs | Stats | Notes
Aerial photo
WARNING: Photo may not be current or correct
Aerial photo of 5CN4 (Vosburgh Airfield)
Photo by Jason Vosburgh
Photo taken 28-May-2011

Do you have a better or more recent aerial photo of Vosburgh Airfield that you would like to share? If so, please send us your photo.

 
Sectional chart

 
Airport distance calculator
Flying to Vosburgh Airfield? Find the distance to fly.

From to 5CN4

Sunrise and sunset
Times for 14-Aug-2020
 Local
(UTC-7)
 Zulu
(UTC)
Morning civil twilight05:5312:53
Sunrise06:1913:19
Sunset19:4602:46
Evening civil twilight20:1303:13

Current date and time
Zulu (UTC)  14-Aug-2020 13:30:50
Local (UTC-7)  14-Aug-2020 06:30:50
 
METAR
KIZA 
31nm SW 
141315Z AUTO 00000KT 10SM CLR 17/12 A2986 RMK AO2
KSBA 
32nm SW 
141253Z 06003KT 10SM CLR 18/13 A2983 RMK AO2 SLP101 T01780133
KBFL 
40nm NE 
141254Z 06003KT 10SM CLR 26/11 A2989 RMK AO2 SLP115 T02610111
KSMX 
43nm W 
141251Z AUTO 16003KT 10SM CLR 19/14 A2983 RMK AO2 SLP100 T01940139
KLPC 
47nm W 
141256Z AUTO 09005KT 10SM CLR 18/14 A2983 RMK AO2 SLP100 T01830139
KOXR 
47nm SE 
141251Z AUTO 00000KT 10SM CLR 19/16 A2984 RMK AO2 SLP104 T01890161
KCMA 
49nm SE 
141255Z AUTO 00000KT 10SM CLR 21/15 A2984 RMK AO2 SLP112 T02060150 $
TAF
KSBA 
32nm SW 
141138Z 1412/1512 VRB03KT P6SM SCT180 FM141700 16005KT P6SM SKC FM142000 23008KT P6SM SKC FM150300 VRB03KT P6SM SKC
KBFL 
40nm NE 
141122Z 1412/1512 33004KT P6SM SCT250 TEMPO 1420/1424 31010KT
NOTAMs
Click for the latest NOTAMs
NOTAMs are issued by the DoD/FAA and will open in a separate window not controlled by AirNav.

 

 
 

Would you like to see your business listed on this page?

 If your business provides an interesting product or service to pilots, flight crews, aircraft, or users of the Vosburgh Airfield, you should consider listing it here.  To start the listing process, click on the button below
 
Add a business
 

Other Pages about Vosburgh Airfield

Update a link
 
Copyright © AirNav, LLC. All rights reserved. Privacy Policy  Contact